EC2UT-13 Weather Reports


time (UTC)temp
F
wind
direction
speed
knots
gust
knots
rain 1hr
in
rain 24hr
in
rain mn
in
humidity
%
barometer
mb
20260506213517 59 293 3.5 9.6 0.00 0.00 0.00 50 1013.8
20260506212538 59 270 4.3 10.4 0.00 0.00 0.00 49 1013.8
20260506211517 60 293 4.3 11.3 0.00 0.00 0.00 48 1013.8
20260506210517 60 293 4.3 7.8 0.00 0.00 0.00 47 1013.6
20260506205517 60 293 4.3 9.6 0.00 0.00 0.00 46 1013.6
20260506204537 61 315 5.2 9.6 0.00 0.00 0.00 46 1013.4
20260506203517 61 315 4.3 11.3 0.00 0.00 0.00 45 1013.3
20260506202517 62 293 3.5 7.8 0.00 0.00 0.00 44 1013.3
20260506201517 62 315 3.5 7.0 0.00 0.00 0.00 44 1013.3
20260506200517 62 270 3.5 8.7 0.00 0.00 0.00 43 1013.2
20260506195517 63 315 3.5 7.8 0.00 0.00 0.00 42 1012.9
20260506194557 63 315 4.3 8.7 0.00 0.00 0.00 41 1012.8
20260506193538 64 315 5.2 8.7 0.00 0.00 0.00 40 1012.7
20260506192517 64 315 5.2 9.6 0.00 0.00 0.00 38 1012.6
20260506191518 65 315 4.3 11.3 0.00 0.00 0.00 38 1012.5
20260506190517 65 315 6.1 9.6 0.00 0.00 0.00 36 1012.4
20260506185517 66 293 5.2 9.6 0.00 0.00 0.00 34 1012.3
20260506184537 66 338 7.0 11.3 0.00 0.00 0.00 32 1012.2
20260506183517 66 338 7.8 13.0 0.00 0.00 0.00 32 1012.2
20260506182517 66 338 8.7 13.9 0.00 0.00 0.00 31 1012.0
20260506181517 67 315 11.3 16.5 0.00 0.00 0.00 31 1012.0
20260506180517 67 315 8.7 13.9 0.00 0.00 0.00 30 1012.0
20260506175517 67 338 7.8 13.9 0.00 0.00 0.00 30 1011.8
20260506174517 67 315 7.0 13.9 0.00 0.00 0.00 31 1011.8
20260506173517 67 338 10.4 18.2 0.00 0.00 0.00 31 1011.8
20260506172517 68 338 8.7 17.4 0.00 0.00 0.00 31 1011.8
20260506171517 68 315 7.8 13.9 0.00 0.00 0.00 30 1011.8
20260506170516 68 338 7.0 12.2 0.00 0.00 0.00 31 1011.8
20260506165517 68 315 7.0 11.3 0.00 0.00 0.00 31 1011.8
20260506164517 69 338 4.3 9.6 0.00 0.00 0.00 31 1011.9
20260506163517 69 315 3.5 7.8 0.00 0.00 0.00 29 1011.9
20260506162537 69 338 4.3 9.6 0.00 0.00 0.00 31 1011.9
20260506161517 69 0 5.2 13.0 0.00 0.00 0.00 28 1012.1
20260506160516 69 315 2.6 7.0 0.00 0.00 0.00 30 1012.2
20260506155517 68 180 4.3 11.3 0.00 0.00 0.00 31 1012.1
20260506154517 68 338 6.1 9.6 0.00 0.00 0.00 30 1012.2
20260506153537 69 293 5.2 10.4 0.00 0.00 0.00 30 1012.2
20260506152517 69 293 3.5 10.4 0.00 0.00 0.00 30 1012.3
20260506151537 69 293 5.2 13.0 0.00 0.00 0.00 31 1012.3
20260506150517 68 338 5.2 11.3 0.00 0.00 0.00 31 1012.5
20260506145517 69 248 4.3 10.4 0.00 0.00 0.00 30 1012.5
20260506144517 69 270 4.3 11.3 0.00 0.00 0.00 29 1012.6
20260506143517 68 293 2.6 6.1 0.00 0.00 0.00 30 1012.8
20260506142516 68 293 3.5 7.8 0.00 0.00 0.00 29 1012.8
20260506141516 68 293 5.2 10.4 0.00 0.00 0.00 29 1012.9
20260506140517 67 225 3.5 7.8 0.00 0.00 0.00 32 1013.1
20260506135517 67 270 6.1 12.2 0.00 0.00 0.00 31 1013.3
20260506134516 67 270 5.2 9.6 0.00 0.00 0.00 32 1013.5
20260506133516 67 203 4.3 7.8 0.00 0.00 0.00 32 1013.4
20260506132516 67 270 4.3 10.4 0.00 0.00 0.00 33 1013.6
20260506131537 66 180 4.3 8.7 0.00 0.00 0.00 34 1013.6
20260506130517 66 270 5.2 11.3 0.00 0.00 0.00 33 1013.5
20260506125517 66 225 3.5 8.7 0.00 0.00 0.00 34 1013.7
20260506124516 65 293 6.1 13.9 0.00 0.00 0.00 33 1013.7
20260506123537 65 225 4.3 8.7 0.00 0.00 0.00 34 1013.7
20260506122517 65 270 5.2 11.3 0.00 0.00 0.00 37 1013.8
20260506121516 64 225 6.1 11.3 0.00 0.00 0.00 36 1013.8
20260506120516 64 270 6.1 12.2 0.00 0.00 0.00 37 1013.9
20260506115516 64 315 2.6 8.7 0.00 0.00 0.00 39 1014.1
20260506114516 64 293 3.5 9.6 0.00 0.00 0.00 40 1014.2
20260506113516 63 315 5.2 12.2 0.00 0.00 0.00 42 1014.2
20260506112517 63 338 6.1 13.9 0.00 0.00 0.00 41 1014.3
20260506111516 63 315 6.1 12.2 0.00 0.00 0.00 38 1014.4
20260506110516 63 180 3.5 7.0 0.00 0.00 0.00 39 1014.5
20260506105516 62 270 5.2 11.3 0.00 0.00 0.00 38 1014.5
20260506104516 61 315 4.3 10.4 0.00 0.00 0.00 40 1014.5
20260506103516 61 293 5.2 13.9 0.00 0.00 0.00 39 1014.7
20260506102517 61 338 6.1 12.2 0.00 0.00 0.00 42 1014.7
20260506101536 60 315 7.8 13.9 0.00 0.00 0.00 39 1014.8
20260506100516 60 315 8.7 20.0 0.00 0.00 0.00 42 1014.9
20260506095516 60 270 4.3 10.4 0.00 0.00 0.00 43 1015.0
20260506094516 59 270 4.3 11.3 0.00 0.00 0.00 44 1014.9
20260506093516 59 248 5.2 11.3 0.00 0.00 0.00 43 1015.1
20260506092536 59 338 5.2 12.2 0.00 0.00 0.00 45 1015.1
20260506091516 58 293 7.0 13.0 0.00 0.00 0.00 46 1015.0
20260506090517 57 270 6.1 12.2 0.00 0.00 0.00 47 1015.0
20260506085516 57 293 7.0 14.8 0.00 0.00 0.00 46 1015.0
20260506084516 57 270 4.3 9.6 0.00 0.00 0.00 48 1015.0
20260506083516 56 293 6.1 11.3 0.00 0.00 0.00 49 1014.9
20260506082516 56 248 4.3 9.6 0.00 0.00 0.00 49 1015.0
20260506081516 56 315 4.3 10.4 0.00 0.00 0.00 49 1014.9
20260506080516 55 293 5.2 10.4 0.00 0.00 0.00 49 1014.9
20260506073516 54 270 3.5 7.8 0.00 0.00 0.00 53 1015.0
20260506072517 53 270 4.3 8.7 0.00 0.00 0.00 53 1015.0
20260506071516 52 270 4.3 9.6 0.00 0.00 0.00 54 1015.1
20260506070516 52 293 4.3 9.6 0.00 0.00 0.00 55 1015.1
20260506062516 51 293 1.7 6.1 0.00 0.00 0.00 56 1015.0
20260506061516 51 293 1.7 4.3 0.00 0.00 0.00 56 1014.9
20260506060516 50 315 2.6 7.8 0.00 0.00 0.00 57 1014.9
20260506050518 49 270 3.5 7.0 0.00 0.00 0.00 59 1014.6
20260506044518 49 293 2.6 6.1 0.00 0.00 0.00 60 1014.5
20260506043518 49 293 2.6 5.2 0.00 0.00 0.00 60 1014.4
20260506042538 49 293 4.3 8.7 0.00 0.00 0.00 59 1014.3
20260506041518 49 315 3.5 7.8 0.00 0.00 0.00 59 1014.3
20260506040517 50 293 4.3 8.7 0.00 0.00 0.00 59 1014.4
20260506035517 50 315 4.3 7.8 0.00 0.00 0.00 59 1014.4
20260506034518 50 293 3.5 7.8 0.00 0.00 0.00 58 1014.5
20260506033518 50 270 4.3 7.8 0.00 0.00 0.00 58 1014.5
20260506032518 50 270 3.5 7.8 0.00 0.00 0.00 58 1014.5
20260506031517 51 270 2.6 6.1 0.00 0.00 0.00 57 1014.5
20260506030518 51 270 3.5 9.6 0.00 0.00 0.00 57 1014.4
20260506025518 51 293 2.6 6.1 0.00 0.00 0.00 57 1014.5
20260506024518 51 270 3.5 7.0 0.00 0.00 0.00 57 1014.4
20260506023517 51 293 3.5 8.7 0.00 0.00 0.00 57 1014.4
20260506022517 51 293 1.7 3.5 0.00 0.00 0.00 58 1014.3
20260506021537 51 270 3.5 7.0 0.00 0.00 0.00 58 1014.1
20260506020517 51 315 4.3 8.7 0.00 0.00 0.00 58 1014.1
20260506015517 51 315 3.5 8.7 0.00 0.00 0.00 58 1014.1
20260506014517 51 338 4.3 7.0 0.00 0.01 0.00 58 1014.1
20260506013518 52 338 3.5 5.2 0.00 0.01 0.00 57 1014.1
20260506012537 52 338 5.2 7.8 0.00 0.01 0.00 56 1014.1
20260506011538 52 293 4.3 8.7 0.00 0.01 0.00 56 1014.0
20260506010517 53 270 4.3 13.0 0.00 0.01 0.00 56 1014.0
20260506005517 53 203 3.5 13.0 0.00 0.01 0.00 57 1014.1
20260506004518 53 270 5.2 8.7 0.00 0.01 0.00 57 1014.1
20260506003538 53 270 6.1 12.2 0.00 0.01 0.00 57 1014.0
20260506002517 53 270 5.2 11.3 0.00 0.01 0.00 56 1014.2
20260506001518 53 315 4.3 10.4 0.00 0.01 0.00 56 1014.2
20260506000517 53 270 6.1 11.3 0.00 0.01 0.00 56 1014.2
20260505235517 53 270 5.2 9.6 0.00 0.01 0.01 56 1014.3
20260505234517 54 293 4.3 10.4 0.00 0.01 0.01 56 1014.3
20260505233538 54 270 5.2 11.3 0.00 0.01 0.01 56 1014.4
20260505232517 54 270 5.2 10.4 0.00 0.01 0.01 56 1014.5
20260505231518 54 248 4.3 9.6 0.00 0.01 0.01 56 1014.3
20260505230517 54 293 5.2 9.6 0.00 0.01 0.01 55 1014.3
20260505225517 54 293 5.2 10.4 0.00 0.01 0.01 55 1014.3
20260505224517 55 270 7.0 11.3 0.00 0.01 0.01 55 1014.4
20260505223517 55 293 6.1 10.4 0.00 0.01 0.01 55 1014.3
20260505222517 55 315 4.3 8.7 0.00 0.01 0.01 55 1014.3
20260505221537 55 293 2.6 7.8 0.00 0.01 0.01 55 1014.2
20260505220537 56 270 4.3 9.6 0.00 0.01 0.01 55 1014.2
20260505215518 56 293 4.3 9.6 0.00 0.01 0.01 55 1014.1
20260505214518 57 270 5.2 10.4 0.00 0.01 0.01 54 1014.1